contact:dominique.lefevre@mio.osupytheas.fr, maurice.libes@osupytheas.fr, didier.mallarino@osupytheas.fr
Project:EMSO http://www.emso-fr.org/EMSO-France
Depth: 2436.0 m
Title:EMSO Ligure Ouest : Data MII capteur MICROCAT
DateTime_Computer,Latitude,Longitude,Temperature,Conductivity,Pressure,DateTime_Instrument
DateTime_Computer,Latitude,Longitude,degC,S m-1,dbar,DateTime_Instrument
2019-09-26T00:01:03Z,42.805,6.029,13.2972,4.60001,2469.83,2019-9-26T02:01:27Z
2019-09-26T00:04:06Z,42.805,6.029,13.2970,4.59983,2469.821,2019-9-26T02:04:30Z
2019-09-26T00:07:09Z,42.805,6.029,13.2969,4.59996,2469.821,2019-9-26T02:07:33Z
2019-09-26T00:10:12Z,42.805,6.029,13.2979,4.60001,2469.844,2019-9-26T02:10:36Z
2019-09-26T00:13:15Z,42.805,6.029,13.2984,4.60016,2469.821,2019-9-26T02:13:39Z
2019-09-26T00:16:19Z,42.805,6.029,13.2976,4.60011,2469.783,2019-9-26T02:16:42Z
2019-09-26T00:19:22Z,42.805,6.029,13.2972,4.59992,2469.83,2019-9-26T02:19:46Z
2019-09-26T00:22:25Z,42.805,6.029,13.2968,4.59991,2469.83,2019-9-26T02:22:49Z
2019-09-26T00:25:28Z,42.805,6.029,13.2968,4.59980,2469.806,2019-9-26T02:25:52Z
2019-09-26T00:28:32Z,42.805,6.029,13.2966,4.60014,2469.806,2019-9-26T02:28:56Z
2019-09-26T00:31:35Z,42.805,6.029,13.2971,4.60002,2469.783,2019-9-26T02:31:59Z
2019-09-26T00:34:38Z,42.805,6.029,13.2971,4.59992,2469.83,2019-9-26T02:35:02Z
2019-09-26T00:37:41Z,42.805,6.029,13.2968,4.59986,2469.844,2019-9-26T02:38:05Z
2019-09-26T00:40:44Z,42.805,6.029,13.2964,4.59986,2469.806,2019-9-26T02:41:08Z
2019-09-26T00:43:48Z,42.805,6.029,13.2967,4.59985,2469.83,2019-9-26T02:44:12Z
2019-09-26T00:46:51Z,42.805,6.029,13.2969,4.59998,2469.83,2019-9-26T02:47:15Z
2019-09-26T00:49:54Z,42.805,6.029,13.2967,4.59986,2469.806,2019-9-26T02:50:18Z
2019-09-26T00:52:57Z,42.805,6.029,13.2975,4.59989,2469.83,2019-9-26T02:53:21Z
2019-09-26T00:56:00Z,42.805,6.029,13.2978,4.59991,2469.83,2019-9-26T02:56:24Z
2019-09-26T00:59:04Z,42.805,6.029,13.2964,4.59986,2469.83,2019-9-26T02:59:27Z
2019-09-26T01:02:07Z,42.805,6.029,13.2970,4.59991,2469.844,2019-9-26T03:02:31Z
2019-09-26T01:05:10Z,42.805,6.029,13.2979,4.59997,2469.844,2019-9-26T03:05:34Z
2019-09-26T01:08:13Z,42.805,6.029,13.2983,4.59991,2469.83,2019-9-26T03:08:37Z
2019-09-26T01:11:16Z,42.805,6.029,13.2972,4.59996,2469.867,2019-9-26T03:11:40Z
2019-09-26T01:14:20Z,42.805,6.029,13.2970,4.59996,2469.821,2019-9-26T03:14:44Z
2019-09-26T01:17:23Z,42.805,6.029,13.2964,4.59981,2469.853,2019-9-26T03:17:47Z
2019-09-26T01:20:26Z,42.805,6.029,13.2965,4.59979,2469.867,2019-9-26T03:20:50Z
2019-09-26T01:23:29Z,42.805,6.029,13.2973,4.60001,2469.83,2019-9-26T03:23:53Z
2019-09-26T01:26:33Z,42.805,6.029,13.2977,4.60003,2469.83,2019-9-26T03:26:57Z
2019-09-26T01:29:36Z,42.805,6.029,13.2979,4.60013,2469.844,2019-9-26T03:30:00Z
2019-09-26T01:32:39Z,42.805,6.029,13.2972,4.60003,2469.853,2019-9-26T03:33:03Z
2019-09-26T01:35:42Z,42.805,6.029,13.2967,4.60008,2469.853,2019-9-26T03:36:06Z
2019-09-26T01:38:46Z,42.805,6.029,13.2972,4.60023,2469.89,2019-9-26T03:39:09Z
2019-09-26T01:41:49Z,42.805,6.029,13.2974,4.59998,2469.867,2019-9-26T03:42:13Z
2019-09-26T01:44:52Z,42.805,6.029,13.2963,4.59981,2469.867,2019-9-26T03:45:16Z
2019-09-26T01:47:55Z,42.805,6.029,13.2968,4.59990,2469.876,2019-9-26T03:48:19Z
2019-09-26T01:50:58Z,42.805,6.029,13.2966,4.59985,2469.867,2019-9-26T03:51:22Z
2019-09-26T01:54:02Z,42.805,6.029,13.2967,4.60013,2469.853,2019-9-26T03:54:26Z
2019-09-26T01:57:05Z,42.805,6.029,13.2968,4.60005,2469.867,2019-9-26T03:57:29Z
2019-09-26T02:00:08Z,42.805,6.029,13.2979,4.59995,2469.867,2019-9-26T04:00:32Z
2019-09-26T02:03:11Z,42.805,6.029,13.2968,4.59984,2469.853,2019-9-26T04:03:35Z
2019-09-26T02:06:14Z,42.805,6.029,13.2961,4.59978,2469.876,2019-9-26T04:06:38Z
2019-09-26T02:09:18Z,42.805,6.029,13.2967,4.59981,2469.853,2019-9-26T04:09:41Z
2019-09-26T02:12:21Z,42.805,6.029,13.2967,4.59982,2469.89,2019-9-26T04:12:45Z
2019-09-26T02:15:24Z,42.805,6.029,13.2968,4.59995,2469.89,2019-9-26T04:15:48Z
2019-09-26T02:18:27Z,42.805,6.029,13.2974,4.60014,2469.89,2019-9-26T04:18:51Z
2019-09-26T02:21:30Z,42.805,6.029,13.2983,4.60011,2469.89,2019-9-26T04:21:54Z
2019-09-26T02:24:34Z,42.805,6.029,13.2968,4.59996,2469.9,2019-9-26T04:24:58Z
2019-09-26T02:27:37Z,42.805,6.029,13.2962,4.60001,2469.867,2019-9-26T04:28:01Z
2019-09-26T02:30:40Z,42.805,6.029,13.2971,4.60022,2469.876,2019-9-26T04:31:04Z
2019-09-26T02:33:43Z,42.805,6.029,13.2989,4.60016,2469.914,2019-9-26T04:34:07Z
2019-09-26T02:36:46Z,42.805,6.029,13.2986,4.60031,2469.853,2019-9-26T04:37:10Z
2019-09-26T02:39:50Z,42.805,6.029,13.3001,4.59984,2469.876,2019-9-26T04:40:14Z
2019-09-26T02:42:53Z,42.805,6.029,13.2973,4.60004,2469.876,2019-9-26T04:43:17Z
2019-09-26T02:45:56Z,42.805,6.029,13.2988,4.60024,2469.876,2019-9-26T04:46:20Z
2019-09-26T02:48:59Z,42.805,6.029,13.2994,4.60016,2469.876,2019-9-26T04:49:23Z
2019-09-26T02:52:03Z,42.805,6.029,13.2971,4.60006,2469.9,2019-9-26T04:52:27Z
2019-09-26T02:55:06Z,42.805,6.029,13.2975,4.59995,2469.876,2019-9-26T04:55:30Z
2019-09-26T02:58:09Z,42.805,6.029,13.2968,4.59983,2469.9,2019-9-26T04:58:33Z
2019-09-26T03:01:12Z,42.805,6.029,13.2967,4.59996,2469.914,2019-9-26T05:01:36Z
2019-09-26T03:04:15Z,42.805,6.029,13.2977,4.60008,2469.9,2019-9-26T05:04:39Z
2019-09-26T03:07:19Z,42.805,6.029,13.2976,4.60021,2469.914,2019-9-26T05:07:42Z
2019-09-26T03:10:22Z,42.805,6.029,13.2983,4.59992,2469.9,2019-9-26T05:10:46Z
2019-09-26T03:13:25Z,42.805,6.029,13.2971,4.59988,2469.937,2019-9-26T05:13:49Z
2019-09-26T03:16:28Z,42.805,6.029,13.2974,4.59988,2469.923,2019-9-26T05:16:52Z
2019-09-26T03:19:31Z,42.805,6.029,13.2967,4.60009,2469.9,2019-9-26T05:19:55Z
2019-09-26T03:22:35Z,42.805,6.029,13.2991,4.59992,2469.937,2019-9-26T05:22:58Z
2019-09-26T03:25:38Z,42.805,6.029,13.2976,4.60011,2469.937,2019-9-26T05:26:02Z
2019-09-26T03:28:41Z,42.805,6.029,13.2980,4.60024,2469.937,2019-9-26T05:29:05Z
2019-09-26T03:31:44Z,42.805,6.029,13.2980,4.59984,2469.96,2019-9-26T05:32:08Z
2019-09-26T03:34:47Z,42.805,6.029,13.2973,4.60033,2469.923,2019-9-26T05:35:11Z
2019-09-26T03:37:51Z,42.805,6.029,13.2982,4.60006,2469.947,2019-9-26T05:38:14Z
2019-09-26T03:40:54Z,42.805,6.029,13.2974,4.60014,2469.923,2019-9-26T05:41:18Z
2019-09-26T03:43:57Z,42.805,6.029,13.2970,4.59988,2469.947,2019-9-26T05:44:21Z
2019-09-26T03:47:00Z,42.805,6.029,13.2965,4.59986,2469.923,2019-9-26T05:47:24Z
2019-09-26T03:50:03Z,42.805,6.029,13.2977,4.60016,2469.96,2019-9-26T05:50:27Z
2019-09-26T03:53:07Z,42.805,6.029,13.2982,4.60007,2469.937,2019-9-26T05:53:30Z
2019-09-26T03:56:10Z,42.805,6.029,13.2990,4.60001,2469.947,2019-9-26T05:56:34Z
2019-09-26T03:59:13Z,42.805,6.029,13.2994,4.60021,2469.947,2019-9-26T05:59:37Z
2019-09-26T04:02:16Z,42.805,6.029,13.2968,4.60001,2469.947,2019-9-26T06:02:40Z
2019-09-26T04:05:19Z,42.805,6.029,13.2974,4.59998,2469.96,2019-9-26T06:05:43Z
2019-09-26T04:08:23Z,42.805,6.029,13.2972,4.60011,2469.97,2019-9-26T06:08:47Z
2019-09-26T04:11:26Z,42.805,6.029,13.2986,4.60024,2469.947,2019-9-26T06:11:50Z
2019-09-26T04:14:29Z,42.805,6.029,13.2978,4.60018,2469.947,2019-9-26T06:14:53Z
2019-09-26T04:17:32Z,42.805,6.029,13.2968,4.60006,2469.96,2019-9-26T06:17:56Z
2019-09-26T04:20:36Z,42.805,6.029,13.2967,4.60004,2469.947,2019-9-26T06:20:59Z
2019-09-26T04:23:39Z,42.805,6.029,13.2964,4.60019,2469.923,2019-9-26T06:24:03Z
2019-09-26T04:26:42Z,42.805,6.029,13.2967,4.60009,2469.923,2019-9-26T06:27:06Z
2019-09-26T04:29:45Z,42.805,6.029,13.2978,4.60016,2469.96,2019-9-26T06:30:09Z
2019-09-26T04:32:49Z,42.805,6.029,13.2994,4.60009,2469.97,2019-9-26T06:33:12Z
2019-09-26T04:35:52Z,42.805,6.029,13.2984,4.60039,2469.97,2019-9-26T06:36:16Z
2019-09-26T04:38:55Z,42.805,6.029,13.2989,4.60001,2469.993,2019-9-26T06:39:19Z
2019-09-26T04:41:58Z,42.805,6.029,13.2966,4.60002,2469.947,2019-9-26T06:42:22Z
2019-09-26T04:45:01Z,42.805,6.029,13.2972,4.60003,2469.984,2019-9-26T06:45:25Z
2019-09-26T04:48:04Z,42.805,6.029,13.2971,4.60039,2470.007,2019-9-26T06:48:28Z
2019-09-26T04:51:08Z,42.805,6.029,13.2986,4.60014,2469.984,2019-9-26T06:51:32Z
2019-09-26T04:54:11Z,42.805,6.029,13.2978,4.60026,2469.97,2019-9-26T06:54:35Z
2019-09-26T04:57:14Z,42.805,6.029,13.2984,4.60017,2469.97,2019-9-26T06:57:38Z
2019-09-26T05:00:17Z,42.805,6.029,13.2966,4.59986,2469.947,2019-9-26T07:00:41Z
2019-09-26T05:03:21Z,42.805,6.029,13.2968,4.59986,2469.947,2019-9-26T07:03:44Z
2019-09-26T05:06:24Z,42.805,6.029,13.2977,4.60008,2469.947,2019-9-26T07:06:48Z
2019-09-26T05:09:27Z,42.805,6.029,13.2979,4.60008,2469.97,2019-9-26T07:09:51Z
2019-09-26T05:12:30Z,42.805,6.029,13.2983,4.60005,2469.984,2019-9-26T07:12:54Z
2019-09-26T05:15:33Z,42.805,6.029,13.2974,4.60023,2469.947,2019-9-26T07:15:57Z
2019-09-26T05:18:37Z,42.805,6.029,13.2978,4.60016,2469.984,2019-9-26T07:19:00Z
2019-09-26T05:21:40Z,42.805,6.029,13.2971,4.60025,2469.947,2019-9-26T07:22:04Z
2019-09-26T05:24:43Z,42.805,6.029,13.2979,4.60017,2469.984,2019-9-26T07:25:07Z
2019-09-26T05:27:46Z,42.805,6.029,13.2984,4.60013,2469.97,2019-9-26T07:28:10Z
2019-09-26T05:30:49Z,42.805,6.029,13.2998,4.60039,2469.923,2019-9-26T07:31:13Z
2019-09-26T05:33:53Z,42.805,6.029,13.2977,4.60055,2470.007,2019-9-26T07:34:17Z
2019-09-26T05:36:56Z,42.805,6.029,13.2971,4.60001,2469.97,2019-9-26T07:37:20Z
2019-09-26T05:39:59Z,42.805,6.029,13.2968,4.60016,2469.97,2019-9-26T07:40:23Z
2019-09-26T05:43:02Z,42.805,6.029,13.2965,4.60009,2469.984,2019-9-26T07:43:26Z
2019-09-26T05:46:05Z,42.805,6.029,13.2980,4.60019,2469.984,2019-9-26T07:46:29Z
2019-09-26T05:49:09Z,42.805,6.029,13.2967,4.60038,2469.9,2019-9-26T07:49:33Z
2019-09-26T05:52:12Z,42.805,6.029,13.2978,4.60009,2469.984,2019-9-26T07:52:36Z
2019-09-26T05:55:15Z,42.805,6.029,13.2968,4.60004,2469.947,2019-9-26T07:55:39Z
2019-09-26T05:58:18Z,42.805,6.029,13.2978,4.60037,2469.96,2019-9-26T07:58:42Z
2019-09-26T06:01:21Z,42.805,6.029,13.2978,4.60022,2469.947,2019-9-26T08:01:45Z
2019-09-26T06:04:25Z,42.805,6.029,13.2979,4.60014,2469.947,2019-9-26T08:04:49Z
2019-09-26T06:07:28Z,42.805,6.029,13.2980,4.60039,2469.984,2019-9-26T08:07:52Z
2019-09-26T06:10:31Z,42.805,6.029,13.2967,4.60003,2469.96,2019-9-26T08:10:55Z
2019-09-26T06:13:34Z,42.805,6.029,13.2963,4.59998,2469.984,2019-9-26T08:13:58Z
2019-09-26T06:16:38Z,42.805,6.029,13.2963,4.60032,2469.947,2019-9-26T08:17:01Z
2019-09-26T06:19:41Z,42.805,6.029,13.2974,4.60016,2469.984,2019-9-26T08:20:05Z
2019-09-26T06:22:44Z,42.805,6.029,13.2980,4.60017,2469.993,2019-9-26T08:23:08Z
2019-09-26T06:25:47Z,42.805,6.029,13.2965,4.60041,2469.984,2019-9-26T08:26:11Z
2019-09-26T06:28:50Z,42.805,6.029,13.2968,4.59993,2469.96,2019-9-26T08:29:14Z
2019-09-26T06:31:54Z,42.805,6.029,13.2970,4.60021,2469.937,2019-9-26T08:32:18Z
2019-09-26T06:34:57Z,42.805,6.029,13.2967,4.60001,2469.937,2019-9-26T08:35:21Z
2019-09-26T06:38:00Z,42.805,6.029,13.2970,4.60008,2469.914,2019-9-26T08:38:24Z
2019-09-26T06:41:03Z,42.805,6.029,13.2969,4.60054,2469.923,2019-9-26T08:41:27Z
2019-09-26T06:44:07Z,42.805,6.029,13.2978,4.60041,2469.923,2019-9-26T08:44:30Z
2019-09-26T06:47:10Z,42.805,6.029,13.2976,4.60050,2469.937,2019-9-26T08:47:34Z
2019-09-26T06:50:13Z,42.805,6.029,13.2990,4.60030,2469.937,2019-9-26T08:50:37Z
2019-09-26T06:53:16Z,42.805,6.029,13.2992,4.60013,2469.947,2019-9-26T08:53:40Z
2019-09-26T06:56:19Z,42.805,6.029,13.2971,4.60005,2469.947,2019-9-26T08:56:43Z
2019-09-26T06:59:23Z,42.805,6.029,13.2975,4.60007,2469.923,2019-9-26T08:59:46Z
2019-09-26T07:02:26Z,42.805,6.029,13.2996,4.59999,2469.937,2019-9-26T09:02:50Z
2019-09-26T07:05:29Z,42.805,6.029,13.2982,4.59995,2469.937,2019-9-26T09:05:53Z
2019-09-26T07:08:32Z,42.805,6.029,13.2978,4.60028,2469.937,2019-9-26T09:08:56Z
2019-09-26T07:11:35Z,42.805,6.029,13.2986,4.60001,2469.923,2019-9-26T09:11:59Z
2019-09-26T07:14:39Z,42.805,6.029,13.2983,4.60019,2469.947,2019-9-26T09:15:02Z
2019-09-26T07:17:42Z,42.805,6.029,13.2971,4.60048,2469.937,2019-9-26T09:18:06Z
2019-09-26T07:20:45Z,42.805,6.029,13.2979,4.60046,2469.923,2019-9-26T09:21:09Z
2019-09-26T07:23:48Z,42.805,6.029,13.2984,4.60057,2469.923,2019-9-26T09:24:12Z
2019-09-26T07:26:51Z,42.805,6.029,13.2983,4.59982,2469.923,2019-9-26T09:27:15Z
2019-09-26T07:29:54Z,42.805,6.029,13.2971,4.60024,2469.947,2019-9-26T09:30:18Z
2019-09-26T07:32:58Z,42.805,6.029,13.2987,4.60006,2469.937,2019-9-26T09:33:22Z
2019-09-26T07:36:01Z,42.805,6.029,13.2975,4.60014,2469.937,2019-9-26T09:36:25Z
2019-09-26T07:39:04Z,42.805,6.029,13.2990,4.60014,2469.923,2019-9-26T09:39:28Z
2019-09-26T07:42:07Z,42.805,6.029,13.2982,4.60026,2469.923,2019-9-26T09:42:31Z
2019-09-26T07:45:10Z,42.805,6.029,13.2979,4.60044,2469.914,2019-9-26T09:45:34Z
2019-09-26T07:48:14Z,42.805,6.029,13.2968,4.60009,2469.9,2019-9-26T09:48:38Z
2019-09-26T07:51:17Z,42.805,6.029,13.2991,4.60036,2469.937,2019-9-26T09:51:41Z
2019-09-26T07:54:20Z,42.805,6.029,13.2972,4.60017,2469.876,2019-9-26T09:54:44Z
2019-09-26T07:57:23Z,42.805,6.029,13.2982,4.60027,2469.876,2019-9-26T09:57:47Z
2019-09-26T08:00:26Z,42.805,6.029,13.2967,4.60013,2469.923,2019-9-26T10:00:50Z
2019-09-26T08:03:30Z,42.805,6.029,13.2990,4.60033,2469.937,2019-9-26T10:03:53Z
2019-09-26T08:06:33Z,42.805,6.029,13.2986,4.60024,2469.876,2019-9-26T10:06:57Z
2019-09-26T08:09:36Z,42.805,6.029,13.2989,4.60025,2469.876,2019-9-26T10:10:00Z
2019-09-26T08:12:39Z,42.805,6.029,13.2996,4.60039,2469.9,2019-9-26T10:13:03Z
2019-09-26T08:15:42Z,42.805,6.029,13.2972,4.60028,2469.914,2019-9-26T10:16:06Z
2019-09-26T08:18:45Z,42.805,6.029,13.2987,4.60024,2469.9,2019-9-26T10:19:09Z
2019-09-26T08:21:49Z,42.805,6.029,13.2986,4.60052,2469.876,2019-9-26T10:22:13Z
2019-09-26T08:24:52Z,42.805,6.029,13.2977,4.60036,2469.89,2019-9-26T10:25:16Z
2019-09-26T08:27:55Z,42.805,6.029,13.2976,4.60017,2469.876,2019-9-26T10:28:19Z
2019-09-26T08:30:58Z,42.805,6.029,13.2986,4.60024,2469.853,2019-9-26T10:31:22Z
2019-09-26T08:34:02Z,42.805,6.029,13.2980,4.60016,2469.89,2019-9-26T10:34:25Z
2019-09-26T08:37:05Z,42.805,6.029,13.2991,4.60037,2469.876,2019-9-26T10:37:29Z
2019-09-26T08:40:08Z,42.805,6.029,13.2989,4.60041,2469.876,2019-9-26T10:40:32Z
2019-09-26T08:43:11Z,42.805,6.029,13.2976,4.60042,2469.914,2019-9-26T10:43:35Z
2019-09-26T08:46:14Z,42.805,6.029,13.2972,4.60036,2469.876,2019-9-26T10:46:38Z
2019-09-26T08:49:17Z,42.805,6.029,13.2979,4.60019,2469.867,2019-9-26T10:49:41Z
2019-09-26T08:52:21Z,42.805,6.029,13.2972,4.60014,2469.876,2019-9-26T10:52:45Z
2019-09-26T08:55:24Z,42.805,6.029,13.2978,4.60014,2469.89,2019-9-26T10:55:48Z
2019-09-26T08:58:27Z,42.805,6.029,13.2979,4.60024,2469.914,2019-9-26T10:58:51Z
2019-09-26T09:01:30Z,42.805,6.029,13.2990,4.60033,2469.89,2019-9-26T11:01:54Z
2019-09-26T09:04:34Z,42.805,6.029,13.2983,4.60039,2469.89,2019-9-26T11:04:58Z
2019-09-26T09:07:37Z,42.805,6.029,13.2981,4.60014,2469.853,2019-9-26T11:08:01Z
2019-09-26T09:10:40Z,42.805,6.029,13.2985,4.60021,2469.914,2019-9-26T11:11:04Z
2019-09-26T09:13:43Z,42.805,6.029,13.2978,4.60040,2469.853,2019-9-26T11:14:07Z
2019-09-26T09:16:47Z,42.805,6.029,13.2973,4.60025,2469.914,2019-9-26T11:17:11Z
2019-09-26T09:19:50Z,42.805,6.029,13.2992,4.60031,2469.89,2019-9-26T11:20:14Z
2019-09-26T09:22:54Z,42.805,6.029,13.2985,4.60015,2469.83,2019-9-26T11:23:18Z
2019-09-26T09:25:57Z,42.805,6.029,13.2979,4.60013,2469.867,2019-9-26T11:26:21Z
2019-09-26T09:29:00Z,42.805,6.029,13.2973,4.60017,2469.853,2019-9-26T11:29:24Z
2019-09-26T09:32:03Z,42.805,6.029,13.2975,4.60003,2469.876,2019-9-26T11:32:27Z
2019-09-26T09:35:06Z,42.805,6.029,13.2971,4.59998,2469.876,2019-9-26T11:35:30Z
2019-09-26T09:38:10Z,42.805,6.029,13.2971,4.60008,2469.89,2019-9-26T11:38:33Z
2019-09-26T09:41:13Z,42.805,6.029,13.2978,4.60004,2469.867,2019-9-26T11:41:37Z
2019-09-26T09:44:16Z,42.805,6.029,13.2987,4.60009,2469.867,2019-9-26T11:44:40Z
2019-09-26T09:47:19Z,42.805,6.029,13.2985,4.60019,2469.867,2019-9-26T11:47:43Z
2019-09-26T09:50:22Z,42.805,6.029,13.2974,4.60004,2469.89,2019-9-26T11:50:46Z
2019-09-26T09:53:25Z,42.805,6.029,13.2978,4.60004,2469.797,2019-9-26T11:53:49Z
2019-09-26T09:56:29Z,42.805,6.029,13.2983,4.60011,2469.853,2019-9-26T11:56:53Z
2019-09-26T09:59:32Z,42.805,6.029,13.2978,4.60013,2469.821,2019-9-26T11:59:56Z
2019-09-26T10:02:35Z,42.805,6.029,13.2980,4.60005,2469.844,2019-9-26T12:02:59Z
2019-09-26T10:05:38Z,42.805,6.029,13.2982,4.60001,2469.867,2019-9-26T12:06:02Z
2019-09-26T10:08:41Z,42.805,6.029,13.2977,4.60045,2469.83,2019-9-26T12:09:05Z
2019-09-26T10:11:45Z,42.805,6.029,13.2975,4.60016,2469.83,2019-9-26T12:12:09Z
2019-09-26T10:14:48Z,42.805,6.029,13.2968,4.60011,2469.853,2019-9-26T12:15:12Z
2019-09-26T10:17:51Z,42.805,6.029,13.2973,4.60001,2469.83,2019-9-26T12:18:15Z
2019-09-26T10:20:54Z,42.805,6.029,13.2969,4.59999,2469.83,2019-9-26T12:21:18Z
2019-09-26T10:23:57Z,42.805,6.029,13.2970,4.60002,2469.844,2019-9-26T12:24:21Z
2019-09-26T10:27:01Z,42.805,6.029,13.2978,4.60002,2469.806,2019-9-26T12:27:25Z
2019-09-26T10:30:04Z,42.805,6.029,13.2976,4.60016,2469.806,2019-9-26T12:30:28Z
2019-09-26T10:33:07Z,42.805,6.029,13.2979,4.60028,2469.844,2019-9-26T12:33:31Z
2019-09-26T10:36:10Z,42.805,6.029,13.2968,4.60004,2469.853,2019-9-26T12:36:34Z
2019-09-26T10:39:13Z,42.805,6.029,13.2967,4.60004,2469.806,2019-9-26T12:39:37Z
2019-09-26T10:42:17Z,42.805,6.029,13.2979,4.60007,2469.83,2019-9-26T12:42:40Z
2019-09-26T10:45:20Z,42.805,6.029,13.2972,4.60005,2469.83,2019-9-26T12:45:44Z
2019-09-26T10:48:23Z,42.805,6.029,13.2972,4.60015,2469.83,2019-9-26T12:48:47Z
2019-09-26T10:51:26Z,42.805,6.029,13.2967,4.60014,2469.867,2019-9-26T12:51:50Z
2019-09-26T10:54:29Z,42.805,6.029,13.2974,4.59996,2469.867,2019-9-26T12:54:53Z
2019-09-26T10:57:33Z,42.805,6.029,13.2972,4.59991,2469.83,2019-9-26T12:57:57Z
2019-09-26T11:00:36Z,42.805,6.029,13.2976,4.60000,2469.83,2019-9-26T13:01:00Z
2019-09-26T11:03:39Z,42.805,6.029,13.2976,4.59990,2469.83,2019-9-26T13:04:03Z
2019-09-26T11:06:42Z,42.805,6.029,13.2974,4.59991,2469.853,2019-9-26T13:07:06Z
2019-09-26T11:09:45Z,42.805,6.029,13.2974,4.59996,2469.83,2019-9-26T13:10:09Z
2019-09-26T11:12:49Z,42.805,6.029,13.2974,4.59999,2469.83,2019-9-26T13:13:12Z
2019-09-26T11:15:52Z,42.805,6.029,13.2966,4.59986,2469.83,2019-9-26T13:16:16Z
2019-09-26T11:18:55Z,42.805,6.029,13.2983,4.60004,2469.83,2019-9-26T13:19:19Z
2019-09-26T11:21:58Z,42.805,6.029,13.2974,4.60014,2469.821,2019-9-26T13:22:22Z
2019-09-26T11:25:01Z,42.805,6.029,13.2979,4.59999,2469.806,2019-9-26T13:25:25Z
2019-09-26T11:28:05Z,42.805,6.029,13.2971,4.60019,2469.806,2019-9-26T13:28:29Z
2019-09-26T11:31:08Z,42.805,6.029,13.2974,4.59996,2469.844,2019-9-26T13:31:32Z
2019-09-26T11:34:11Z,42.805,6.029,13.2970,4.59987,2469.806,2019-9-26T13:34:35Z
2019-09-26T11:37:14Z,42.805,6.029,13.2973,4.59983,2469.853,2019-9-26T13:37:38Z
2019-09-26T11:40:17Z,42.805,6.029,13.2970,4.60001,2469.83,2019-9-26T13:40:41Z
2019-09-26T11:43:21Z,42.805,6.029,13.2976,4.60006,2469.844,2019-9-26T13:43:45Z
2019-09-26T11:46:24Z,42.805,6.029,13.2980,4.59989,2469.83,2019-9-26T13:46:48Z
2019-09-26T11:49:27Z,42.805,6.029,13.2967,4.59993,2469.83,2019-9-26T13:49:51Z
2019-09-26T11:52:30Z,42.805,6.029,13.2971,4.59989,2469.806,2019-9-26T13:52:54Z
2019-09-26T11:55:33Z,42.805,6.029,13.2969,4.60001,2469.821,2019-9-26T13:55:57Z
2019-09-26T11:58:37Z,42.805,6.029,13.2971,4.59999,2469.83,2019-9-26T13:59:00Z
2019-09-26T12:01:40Z,42.805,6.029,13.2980,4.60011,2469.844,2019-9-26T14:02:04Z
2019-09-26T12:04:43Z,42.805,6.029,13.2974,4.60026,2469.769,2019-9-26T14:05:07Z
2019-09-26T12:07:46Z,42.805,6.029,13.2981,4.60013,2469.867,2019-9-26T14:08:10Z
2019-09-26T12:10:49Z,42.805,6.029,13.2978,4.60026,2469.806,2019-9-26T14:11:13Z
2019-09-26T12:13:53Z,42.805,6.029,13.2981,4.59996,2469.806,2019-9-26T14:14:17Z
2019-09-26T12:16:56Z,42.805,6.029,13.2974,4.59997,2469.806,2019-9-26T14:17:20Z
2019-09-26T12:19:59Z,42.805,6.029,13.2972,4.60011,2469.844,2019-9-26T14:20:23Z
2019-09-26T12:23:02Z,42.805,6.029,13.2972,4.60006,2469.83,2019-9-26T14:23:26Z
2019-09-26T12:26:05Z,42.805,6.029,13.2976,4.60000,2469.821,2019-9-26T14:26:29Z
2019-09-26T12:29:09Z,42.805,6.029,13.2974,4.59992,2469.867,2019-9-26T14:29:32Z
2019-09-26T12:32:12Z,42.805,6.029,13.2972,4.60003,2469.844,2019-9-26T14:32:36Z
2019-09-26T12:35:15Z,42.805,6.029,13.2970,4.60004,2469.867,2019-9-26T14:35:39Z
2019-09-26T12:38:18Z,42.805,6.029,13.2975,4.60006,2469.83,2019-9-26T14:38:42Z
2019-09-26T12:41:21Z,42.805,6.029,13.2966,4.59995,2469.844,2019-9-26T14:41:45Z
2019-09-26T12:44:25Z,42.805,6.029,13.2973,4.60003,2469.83,2019-9-26T14:44:48Z
2019-09-26T12:47:28Z,42.805,6.029,13.2977,4.60007,2469.844,2019-9-26T14:47:52Z
2019-09-26T12:50:31Z,42.805,6.029,13.2977,4.60000,2469.844,2019-9-26T14:50:55Z
2019-09-26T12:53:34Z,42.805,6.029,13.2972,4.59994,2469.806,2019-9-26T14:53:58Z
2019-09-26T12:56:37Z,42.805,6.029,13.2975,4.59991,2469.853,2019-9-26T14:57:01Z
2019-09-26T12:59:41Z,42.805,6.029,13.2972,4.60016,2469.83,2019-9-26T15:00:05Z
2019-09-26T13:02:44Z,42.805,6.029,13.2987,4.60000,2469.867,2019-9-26T15:03:08Z
2019-09-26T13:05:47Z,42.805,6.029,13.2979,4.60010,2469.853,2019-9-26T15:06:11Z
2019-09-26T13:08:51Z,42.805,6.029,13.2967,4.60005,2469.867,2019-9-26T15:09:14Z
2019-09-26T13:11:54Z,42.805,6.029,13.2974,4.60016,2469.853,2019-9-26T15:12:18Z
2019-09-26T13:14:57Z,42.805,6.029,13.2983,4.60009,2469.83,2019-9-26T15:15:21Z
2019-09-26T13:18:00Z,42.805,6.029,13.2975,4.60016,2469.876,2019-9-26T15:18:24Z
2019-09-26T13:21:03Z,42.805,6.029,13.2966,4.60014,2469.867,2019-9-26T15:21:27Z
2019-09-26T13:24:07Z,42.805,6.029,13.2974,4.60001,2469.876,2019-9-26T15:24:30Z
2019-09-26T13:27:10Z,42.805,6.029,13.2980,4.60016,2469.876,2019-9-26T15:27:34Z
2019-09-26T13:30:13Z,42.805,6.029,13.2973,4.59987,2469.853,2019-9-26T15:30:37Z
2019-09-26T13:33:16Z,42.805,6.029,13.2980,4.60002,2469.89,2019-9-26T15:33:40Z
2019-09-26T13:36:19Z,42.805,6.029,13.2980,4.60009,2469.853,2019-9-26T15:36:43Z
2019-09-26T13:39:22Z,42.805,6.029,13.2972,4.59996,2469.914,2019-9-26T15:39:46Z
2019-09-26T13:42:26Z,42.805,6.029,13.2976,4.60020,2469.876,2019-9-26T15:42:50Z
2019-09-26T13:45:29Z,42.805,6.029,13.2982,4.60013,2469.853,2019-9-26T15:45:53Z
2019-09-26T13:48:32Z,42.805,6.029,13.2984,4.59999,2469.89,2019-9-26T15:48:56Z
2019-09-26T13:51:35Z,42.805,6.029,13.2979,4.60006,2469.853,2019-9-26T15:51:59Z
2019-09-26T13:54:39Z,42.805,6.029,13.2973,4.60018,2469.9,2019-9-26T15:55:02Z
2019-09-26T13:57:42Z,42.805,6.029,13.2971,4.60011,2469.876,2019-9-26T15:58:06Z
2019-09-26T14:00:45Z,42.805,6.029,13.2980,4.60015,2469.89,2019-9-26T16:01:09Z
2019-09-26T14:03:48Z,42.805,6.029,13.2978,4.60013,2469.914,2019-9-26T16:04:12Z
2019-09-26T14:06:51Z,42.805,6.029,13.2967,4.59996,2469.914,2019-9-26T16:07:15Z
2019-09-26T14:09:55Z,42.805,6.029,13.2982,4.60019,2469.914,2019-9-26T16:10:19Z
2019-09-26T14:12:58Z,42.805,6.029,13.2972,4.60003,2469.9,2019-9-26T16:13:22Z
2019-09-26T14:16:01Z,42.805,6.029,13.2976,4.60026,2469.9,2019-9-26T16:16:25Z
2019-09-26T14:19:04Z,42.805,6.029,13.2971,4.59999,2469.9,2019-9-26T16:19:28Z
2019-09-26T14:22:08Z,42.805,6.029,13.2967,4.59990,2469.9,2019-9-26T16:22:31Z
2019-09-26T14:25:11Z,42.805,6.029,13.2969,4.59992,2469.89,2019-9-26T16:25:35Z
2019-09-26T14:28:14Z,42.805,6.029,13.2964,4.60005,2469.914,2019-9-26T16:28:38Z
2019-09-26T14:31:17Z,42.805,6.029,13.2968,4.59999,2469.937,2019-9-26T16:31:41Z
2019-09-26T14:34:20Z,42.805,6.029,13.2965,4.59999,2469.947,2019-9-26T16:34:44Z
2019-09-26T14:37:24Z,42.805,6.029,13.2972,4.60004,2469.923,2019-9-26T16:37:48Z
2019-09-26T14:40:27Z,42.805,6.029,13.2971,4.59989,2469.923,2019-9-26T16:40:51Z
2019-09-26T14:43:30Z,42.805,6.029,13.2969,4.60008,2469.923,2019-9-26T16:43:54Z
2019-09-26T14:46:33Z,42.805,6.029,13.2971,4.60014,2469.96,2019-9-26T16:46:57Z
2019-09-26T14:49:36Z,42.805,6.029,13.2979,4.60002,2469.947,2019-9-26T16:50:00Z
2019-09-26T14:52:40Z,42.805,6.029,13.2967,4.60004,2469.96,2019-9-26T16:53:03Z
2019-09-26T14:55:43Z,42.805,6.029,13.2975,4.60024,2469.923,2019-9-26T16:56:07Z
2019-09-26T14:58:46Z,42.805,6.029,13.2986,4.60020,2469.914,2019-9-26T16:59:10Z
2019-09-26T15:01:49Z,42.805,6.029,13.2978,4.60016,2469.97,2019-9-26T17:02:13Z
2019-09-26T15:04:53Z,42.805,6.029,13.2969,4.59987,2469.947,2019-9-26T17:05:16Z
2019-09-26T15:07:56Z,42.805,6.029,13.2974,4.59996,2469.947,2019-9-26T17:08:20Z
2019-09-26T15:10:59Z,42.805,6.029,13.2968,4.60005,2469.947,2019-9-26T17:11:23Z
2019-09-26T15:14:02Z,42.805,6.029,13.2980,4.60020,2469.97,2019-9-26T17:14:26Z